,,,PA_Meas_PMT16A,,PR_Meas_QMR101_102,,RH_Meas_QMH101,,SR_Meas_QMS101,,TA_Meas_QMH101,,GenWind,,GenWind,
date,time,status,PA,status,PR,status,RH,status,SR,status,TA,status,DirAvg,status,SpdAvg,
2010-02-18, 00:00:04,VALID,1005.77,VALID,0,VALID,95.6204,VALID,0,VALID,23.4311,VALID,16,VALID,0.4125,
2010-02-18, 00:01:04,VALID,1005.78,VALID,0,VALID,95.628,VALID,0,VALID,23.4505,VALID,16,VALID,0.449609,
2010-02-18, 00:02:04,VALID,1005.73,VALID,0,VALID,95.628,VALID,0,VALID,23.4311,VALID,15,VALID,0.51875,
2010-02-18, 00:03:04,VALID,1005.73,VALID,0,VALID,95.6356,VALID,0,VALID,23.4293,VALID,15,VALID,0.457422,
2010-02-18, 00:04:04,VALID,1005.7,VALID,0,VALID,95.6356,VALID,0,VALID,23.4311,VALID,15,VALID,0.646875,
2010-02-18, 00:05:04,VALID,1005.71,VALID,0,VALID,95.6356,VALID,0,VALID,23.3904,VALID,15,VALID,0.526953,
2010-02-18, 00:06:04,VALID,1005.7,VALID,0,VALID,95.6662,VALID,0,VALID,23.4098,VALID,15,VALID,0.5375,
2010-02-18, 00:07:04,VALID,1005.68,VALID,0,VALID,95.6356,VALID,0,VALID,23.4098,VALID,15,VALID,0.565234,
2010-02-18, 00:08:04,VALID,1005.69,VALID,0,VALID,95.6433,VALID,0,VALID,23.3921,VALID,15,VALID,0.492969,
2010-02-18, 00:09:04,VALID,1005.67,VALID,0,VALID,95.6662,VALID,0,VALID,23.3904,VALID,15,VALID,0.491797,
2010-02-18, 00:10:04,VALID,1005.67,VALID,0,VALID,95.6738,VALID,0,VALID,23.3904,VALID,15,VALID,0.555859,
2010-02-18, 00:11:04,VALID,1005.66,VALID,0,VALID,95.6433,VALID,0,VALID,23.3709,VALID,15,VALID,0.490234,
2010-02-18, 00:12:04,VALID,1005.64,VALID,0,VALID,95.6662,VALID,0,VALID,23.3904,VALID,15,VALID,0.382813,
2010-02-18, 00:13:04,VALID,1005.63,VALID,0,VALID,95.6738,VALID,0,VALID,23.4116,VALID,15,VALID,0.596094,
2010-02-18, 00:14:04,VALID,1005.63,VALID,0,VALID,95.6738,VALID,0.100563,VALID,23.3904,VALID,15,VALID,0.628125,
2010-02-18, 00:15:04,VALID,1005.62,VALID,0,VALID,95.6738,VALID,0.100563,VALID,23.3497,VALID,15,VALID,0.553906,
2010-02-18, 00:16:04,VALID,1005.62,VALID,0,VALID,95.689,VALID,0.100563,VALID,23.3709,VALID,15,VALID,0.570703,
2010-02-18, 00:17:04,VALID,1005.62,VALID,0,VALID,95.6738,VALID,0.100563,VALID,23.3497,VALID,15,VALID,0.508203,
2010-02-18, 00:18:04,VALID,1005.57,VALID,0,VALID,95.6814,VALID,0.100563,VALID,23.4098,VALID,15,VALID,0.301172,
2010-02-18, 00:19:04,VALID,1005.58,VALID,0,VALID,95.689,VALID,0.100563,VALID,23.3886,VALID,15,VALID,0.195703,
2010-02-18, 00:20:04,VALID,1005.56,VALID,0,VALID,95.7043,VALID,0,VALID,23.3904,VALID,15,VALID,0.2875,
2010-02-18, 00:21:04,VALID,1005.56,VALID,0,VALID,95.6814,VALID,0,VALID,23.4098,VALID,15,VALID,0.367188,
2010-02-18, 00:22:04,VALID,1005.53,VALID,0,VALID,95.7043,VALID,0,VALID,23.4098,VALID,15,VALID,0.352734,
2010-02-18, 00:23:04,VALID,1005.51,VALID,0,VALID,95.7119,VALID,0,VALID,23.3886,VALID,15,VALID,0.298047,
2010-02-18, 00:24:04,VALID,1005.5,VALID,0,VALID,95.7043,VALID,0.100563,VALID,23.4098,VALID,15,VALID,0.273438,
2010-02-18, 00:25:04,VALID,1005.51,VALID,0,VALID,95.7272,VALID,0,VALID,23.3886,VALID,15,VALID,0.330859,
2010-02-18, 00:26:04,VALID,1005.51,VALID,0,VALID,95.7424,VALID,0,VALID,23.4505,VALID,15,VALID,0.296875,
2010-02-18, 00:27:04,VALID,1005.5,VALID,0,VALID,95.7272,VALID,0.100563,VALID,23.408,VALID,15,VALID,0.343359,
2010-02-18, 00:28:04,VALID,1005.5,VALID,0,VALID,95.7196,VALID,0,VALID,23.3904,VALID,15,VALID,0.220313,
2010-02-18, 00:29:04,VALID,1005.47,VALID,0,VALID,95.7272,VALID,0,VALID,23.3514,VALID,15,VALID,0.286719,
2010-02-18, 00:30:04,VALID,1005.48,VALID,0,VALID,95.7272,VALID,0,VALID,23.3709,VALID,15,VALID,0.259375,
2010-02-18, 00:31:04,VALID,1005.47,VALID,0,VALID,95.7196,VALID,0,VALID,23.3709,VALID,15,VALID,0.361328,
2010-02-18, 00:32:04,VALID,1005.48,VALID,0,VALID,95.7348,VALID,0,VALID,23.3921,VALID,15,VALID,0.359375,
2010-02-18, 00:33:04,VALID,1005.47,VALID,0,VALID,95.7424,VALID,0,VALID,23.3514,VALID,15,VALID,0.353906,
2010-02-18, 00:34:04,VALID,1005.43,VALID,0,VALID,95.7348,VALID,0,VALID,23.3532,VALID,15,VALID,0.345313,
2010-02-18, 00:35:04,VALID,1005.43,VALID,0,VALID,95.7272,VALID,0,VALID,23.3514,VALID,15,VALID,0.435156,
2010-02-18, 00:36:04,VALID,1005.43,VALID,0,VALID,95.7272,VALID,0,VALID,23.3727,VALID,15,VALID,0.360547,
2010-02-18, 00:37:04,VALID,1005.43,VALID,0,VALID,95.7348,VALID,0,VALID,23.3727,VALID,15,VALID,0.517969,
2010-02-18, 00:38:04,VALID,1005.42,VALID,0,VALID,95.7577,VALID,0,VALID,23.3709,VALID,15,VALID,0.160938,
2010-02-18, 00:39:04,VALID,1005.39,VALID,0,VALID,95.7501,VALID,0,VALID,23.3709,VALID,15,VALID,0.262109,
2010-02-18, 00:40:04,VALID,1005.4,VALID,0,VALID,95.7501,VALID,0,VALID,23.3921,VALID,15,VALID,0.260938,
2010-02-18, 00:41:04,VALID,1005.4,VALID,0,VALID,95.7424,VALID,0,VALID,23.4116,VALID,15,VALID,0.204297,
2010-02-18, 00:42:04,VALID,1005.38,VALID,0,VALID,95.7577,VALID,0,VALID,23.4116,VALID,15,VALID,0.351563,
2010-02-18, 00:43:04,VALID,1005.4,VALID,0,VALID,95.7424,VALID,0,VALID,23.3921,VALID,15,VALID,0.261328,
2010-02-18, 00:44:04,VALID,1005.39,VALID,0,VALID,95.7501,VALID,0,VALID,23.3921,VALID,15,VALID,0.196094,
2010-02-18, 00:45:04,VALID,1005.37,VALID,0,VALID,95.7577,VALID,0,VALID,23.3514,VALID,15,VALID,0.418359,
2010-02-18, 00:46:04,VALID,1005.42,VALID,0,VALID,95.7577,VALID,0,VALID,23.3532,VALID,15,VALID,0.25625,
2010-02-18, 00:47:04,VALID,1005.39,VALID,0,VALID,95.7653,VALID,0,VALID,23.3514,VALID,2,VALID,0.460938,
2010-02-18, 00:48:04,VALID,1005.37,VALID,0,VALID,95.7653,VALID,0,VALID,23.3709,VALID,2,VALID,0.373047,
2010-02-18, 00:49:04,VALID,1005.35,VALID,0,VALID,95.7577,VALID,0,VALID,23.3727,VALID,2,VALID,0.399609,
2010-02-18, 00:50:04,VALID,1005.33,VALID,0,VALID,95.7424,VALID,0,VALID,23.3532,VALID,2,VALID,0.312891,
2010-02-18, 00:51:04,VALID,1005.34,VALID,0,VALID,95.7653,VALID,0,VALID,23.3337,VALID,2,VALID,0.323828,
2010-02-18, 00:52:04,VALID,1005.3,VALID,0,VALID,95.7424,VALID,0,VALID,23.3125,VALID,1,VALID,0.387109,
2010-02-18, 00:53:04,VALID,1005.27,VALID,0,VALID,95.7577,VALID,0,VALID,23.3143,VALID,360,VALID,0.422656,
2010-02-18, 00:54:04,VALID,1005.27,VALID,0,VALID,95.7653,VALID,0,VALID,23.3143,VALID,360,VALID,0.545703,
2010-02-18, 00:55:04,VALID,1005.29,VALID,0,VALID,95.7577,VALID,0,VALID,23.2736,VALID,360,VALID,0.595312,
2010-02-18, 00:56:04,VALID,1005.25,VALID,0,VALID,95.7501,VALID,0,VALID,23.2754,VALID,360,VALID,0.585156,
2010-02-18, 00:57:04,VALID,1005.22,VALID,0,VALID,95.7577,VALID,0,VALID,23.2347,VALID,360,VALID,0.257422,
2010-02-18, 00:58:04,VALID,1005.26,VALID,0,VALID,95.7501,VALID,0,VALID,23.2577,VALID,360,VALID,0.435937,
2010-02-18, 00:59:04,VALID,1005.22,VALID,0,VALID,95.7348,VALID,0,VALID,23.2152,VALID,3,VALID,0.386328,
2010-02-18, 01:00:04,VALID,1005.19,VALID,0,VALID,95.7577,VALID,0,VALID,23.2364,VALID,4,VALID,0.505859,
2010-02-18, 01:01:04,VALID,1005.17,VALID,0,VALID,95.7424,VALID,0,VALID,23.2364,VALID,3,VALID,0.303906,
2010-02-18, 01:02:04,VALID,1005.17,VALID,0,VALID,95.7577,VALID,0,VALID,23.2364,VALID,3,VALID,0.591016,
2010-02-18, 01:03:04,VALID,1005.12,VALID,0,VALID,95.7424,VALID,0,VALID,23.2559,VALID,3,VALID,0.578906,
2010-02-18, 01:04:04,VALID,1005.08,VALID,0,VALID,95.7424,VALID,0,VALID,23.2347,VALID,3,VALID,0.580078,
2010-02-18, 01:05:04,VALID,1005.07,VALID,0,VALID,95.7424,VALID,0,VALID,23.2541,VALID,3,VALID,0.717969,
2010-02-18, 01:06:04,VALID,1005.07,VALID,0,VALID,95.7196,VALID,0,VALID,23.2541,VALID,3,VALID,0.527344,
2010-02-18, 01:07:04,VALID,1005.02,VALID,0,VALID,95.7424,VALID,0,VALID,23.2347,VALID,3,VALID,0.723437,
2010-02-18, 01:08:04,VALID,1004.99,VALID,0,VALID,95.7424,VALID,0,VALID,23.2541,VALID,3,VALID,0.587891,
2010-02-18, 01:09:04,VALID,1004.97,VALID,0,VALID,95.7424,VALID,0,VALID,23.2948,VALID,2,VALID,0.732813,
2010-02-18, 01:10:04,VALID,1004.92,VALID,0,VALID,95.7424,VALID,0,VALID,23.3143,VALID,2,VALID,0.341797,
2010-02-18, 01:11:04,VALID,1004.9,VALID,0,VALID,95.7348,VALID,0,VALID,23.2736,VALID,2,VALID,0.526953,
2010-02-18, 01:12:04,VALID,1004.85,VALID,0,VALID,95.7272,VALID,0,VALID,23.2931,VALID,2,VALID,0.342578,
2010-02-18, 01:13:04,VALID,1004.84,VALID,0,VALID,95.7119,VALID,0,VALID,23.3125,VALID,2,VALID,0.327344,
2010-02-18, 01:14:04,VALID,1004.85,VALID,0,VALID,95.7272,VALID,0,VALID,23.3125,VALID,2,VALID,0.360547,
2010-02-18, 01:15:04,VALID,1004.84,VALID,0,VALID,95.7272,VALID,0,VALID,23.3125,VALID,358,VALID,0.460156,
2010-02-18, 01:16:04,VALID,1004.84,VALID,0,VALID,95.7043,VALID,0,VALID,23.3514,VALID,346,VALID,0.224609,
2010-02-18, 01:17:04,VALID,1004.86,VALID,0,VALID,95.7272,VALID,0,VALID,23.3727,VALID,346,VALID,0.294922,
2010-02-18, 01:18:04,VALID,1004.89,VALID,0,VALID,95.7043,VALID,0,VALID,23.3904,VALID,346,VALID,0.281641,
2010-02-18, 01:19:04,VALID,1004.86,VALID,0,VALID,95.689,VALID,0,VALID,23.3921,VALID,346,VALID,0.135547,
2010-02-18, 01:20:04,VALID,1004.91,VALID,0,VALID,95.7043,VALID,0,VALID,23.4311,VALID,346,VALID,0.345703,
2010-02-18, 01:21:04,VALID,1004.94,VALID,0,VALID,95.6814,VALID,0,VALID,23.4098,VALID,346,VALID,0.209375,
2010-02-18, 01:22:04,VALID,1004.95,VALID,0,VALID,95.6814,VALID,0,VALID,23.3904,VALID,346,VALID,0.0851562,
2010-02-18, 01:23:04,VALID,1004.97,VALID,0,VALID,95.6738,VALID,0,VALID,23.4098,VALID,346,VALID,0.260547,
2010-02-18, 01:24:04,VALID,1004.92,VALID,0,VALID,95.6662,VALID,0,VALID,23.4311,VALID,346,VALID,0.0917969,
2010-02-18, 01:25:04,VALID,1004.91,VALID,0,VALID,95.6585,VALID,0,VALID,23.4098,VALID,346,VALID,0.366797,
2010-02-18, 01:26:04,VALID,1004.9,VALID,0,VALID,95.6509,VALID,0,VALID,23.4311,VALID,346,VALID,0.207813,
2010-02-18, 01:27:04,VALID,1004.88,VALID,0,VALID,95.6433,VALID,0,VALID,23.4116,VALID,346,VALID,0.442969,
2010-02-18, 01:28:04,VALID,1004.85,VALID,0,VALID,95.6128,VALID,0,VALID,23.3709,VALID,346,VALID,0.228125,
2010-02-18, 01:29:04,VALID,1004.81,VALID,0,VALID,95.5975,VALID,0,VALID,23.3709,VALID,346,VALID,0.479297,
2010-02-18, 01:30:04,VALID,1004.79,VALID,0,VALID,95.6051,VALID,0,VALID,23.3727,VALID,347,VALID,0.384766,
2010-02-18, 01:31:04,VALID,1004.79,VALID,0,VALID,95.5975,VALID,0,VALID,23.332,VALID,347,VALID,0.410937,
2010-02-18, 01:32:04,VALID,1004.79,VALID,0,VALID,95.5822,VALID,0,VALID,23.3532,VALID,347,VALID,0.507031,
2010-02-18, 01:33:04,VALID,1004.8,VALID,0,VALID,95.567,VALID,0,VALID,23.3532,VALID,347,VALID,0.41875,
2010-02-18, 01:34:04,VALID,1004.8,VALID,0,VALID,95.5746,VALID,0,VALID,23.3532,VALID,348,VALID,0.151172,
2010-02-18, 01:35:04,VALID,1004.81,VALID,0,VALID,95.5594,VALID,0,VALID,23.332,VALID,348,VALID,0.285547,
2010-02-18, 01:36:04,VALID,1004.86,VALID,0,VALID,95.5517,VALID,0,VALID,23.3532,VALID,348,VALID,0.217187,
2010-02-18, 01:37:04,VALID,1004.86,VALID,0,VALID,95.5594,VALID,0,VALID,23.3727,VALID,348,VALID,0.146484,
2010-02-18, 01:38:04,VALID,1004.86,VALID,0,VALID,95.5899,VALID,0,VALID,23.3727,VALID,348,VALID,0.00507812,
2010-02-18, 01:39:04,VALID,1004.87,VALID,0,VALID,95.567,VALID,0,VALID,23.3727,VALID,348,VALID,0.358203,
2010-02-18, 01:40:04,VALID,1004.87,VALID,0,VALID,95.567,VALID,0,VALID,23.3709,VALID,307,VALID,0.298438,
2010-02-18, 01:41:04,VALID,1004.87,VALID,0,VALID,95.5746,VALID,0,VALID,23.3709,VALID,307,VALID,0.293359,
2010-02-18, 01:42:04,VALID,1004.89,VALID,0,VALID,95.567,VALID,0,VALID,23.3921,VALID,307,VALID,0.417969,
2010-02-18, 01:43:04,VALID,1004.88,VALID,0,VALID,95.5517,VALID,0,VALID,23.3921,VALID,307,VALID,0.100781,
2010-02-18, 01:44:04,VALID,1004.92,VALID,0,VALID,95.5441,VALID,0,VALID,23.3514,VALID,307,VALID,0.373047,
2010-02-18, 01:45:04,VALID,1004.89,VALID,0,VALID,95.5746,VALID,0,VALID,23.3532,VALID,307,VALID,0.353906,
2010-02-18, 01:46:04,VALID,1004.93,VALID,0,VALID,95.5517,VALID,0,VALID,23.3514,VALID,307,VALID,0.0210938,
2010-02-18, 01:47:04,VALID,1004.95,VALID,0,VALID,95.5517,VALID,0,VALID,23.3532,VALID,307,VALID,0,
2010-02-18, 01:48:04,VALID,1004.95,VALID,0,VALID,95.5441,VALID,0,VALID,23.3727,VALID,307,VALID,0.015625,
2010-02-18, 01:49:04,VALID,1004.95,VALID,0,VALID,95.5441,VALID,0,VALID,23.3514,VALID,307,VALID,0.228906,
2010-02-18, 01:50:04,VALID,1004.94,VALID,0,VALID,95.5441,VALID,0,VALID,23.332,VALID,307,VALID,0.233203,
2010-02-18, 01:51:04,VALID,1004.91,VALID,0,VALID,95.5365,VALID,0,VALID,23.3125,VALID,307,VALID,0.432813,
2010-02-18, 01:52:04,VALID,1004.91,VALID,0,VALID,95.5441,VALID,0,VALID,23.3143,VALID,307,VALID,0.319531,
2010-02-18, 01:53:04,VALID,1004.88,VALID,0,VALID,95.5288,VALID,0,VALID,23.2754,VALID,349,VALID,0.645312,
2010-02-18, 01:54:04,VALID,1004.86,VALID,0,VALID,95.5136,VALID,0,VALID,23.2754,VALID,350,VALID,0.301172,
2010-02-18, 01:55:04,VALID,1004.84,VALID,0,VALID,95.5212,VALID,0,VALID,23.2559,VALID,350,VALID,0.624219,
2010-02-18, 01:56:04,VALID,1004.83,VALID,0,VALID,95.5288,VALID,0,VALID,23.2364,VALID,355,VALID,0.246875,
2010-02-18, 01:57:04,VALID,1004.81,VALID,0,VALID,95.506,VALID,0,VALID,23.217,VALID,355,VALID,0.608594,
2010-02-18, 01:58:04,VALID,1004.84,VALID,0,VALID,95.5136,VALID,0,VALID,23.1975,VALID,355,VALID,0.103906,
2010-02-18, 01:59:04,VALID,1004.83,VALID,0,VALID,95.5136,VALID,0,VALID,23.1975,VALID,355,VALID,0.0015625,
2010-02-18, 02:00:04,VALID,1004.82,VALID,0,VALID,95.506,VALID,0,VALID,23.2364,VALID,355,VALID,0,
2010-02-18, 02:01:04,VALID,1004.81,VALID,0,VALID,95.5136,VALID,0,VALID,23.1957,VALID,355,VALID,0,
2010-02-18, 02:02:04,VALID,1004.84,VALID,0,VALID,95.5365,VALID,0,VALID,23.217,VALID,355,VALID,0,
2010-02-18, 02:03:04,VALID,1004.83,VALID,0,VALID,95.5517,VALID,0,VALID,23.217,VALID,355,VALID,0.0273438,
2010-02-18, 02:04:04,VALID,1004.85,VALID,0,VALID,95.5441,VALID,0,VALID,23.2187,VALID,355,VALID,0.207813,
2010-02-18, 02:05:04,VALID,1004.85,VALID,0,VALID,95.5441,VALID,0,VALID,23.1975,VALID,355,VALID,0,
2010-02-18, 02:06:04,VALID,1004.83,VALID,0,VALID,95.5594,VALID,0,VALID,23.1975,VALID,355,VALID,0.209766,
2010-02-18, 02:07:04,VALID,1004.84,VALID,0,VALID,95.567,VALID,0,VALID,23.217,VALID,355,VALID,0,
2010-02-18, 02:08:04,VALID,1004.82,VALID,0,VALID,95.5441,VALID,0,VALID,23.217,VALID,355,VALID,0,
2010-02-18, 02:09:04,VALID,1004.83,VALID,0,VALID,95.567,VALID,0,VALID,23.1763,VALID,355,VALID,0,
2010-02-18, 02:10:04,VALID,1004.79,VALID,0,VALID,95.5822,VALID,0,VALID,23.1763,VALID,355,VALID,0,
2010-02-18, 02:11:04,VALID,1004.81,VALID,0,VALID,95.567,VALID,0,VALID,23.217,VALID,355,VALID,0,
2010-02-18, 02:12:04,VALID,1004.83,VALID,0,VALID,95.5822,VALID,0,VALID,23.1975,VALID,355,VALID,0,
2010-02-18, 02:13:04,VALID,1004.81,VALID,0,VALID,95.5822,VALID,0,VALID,23.1957,VALID,355,VALID,0.146875,
2010-02-18, 02:14:04,VALID,1004.8,VALID,0,VALID,95.5975,VALID,0,VALID,23.217,VALID,355,VALID,0.05625,
2010-02-18, 02:15:04,VALID,1004.79,VALID,0,VALID,95.5975,VALID,0,VALID,23.1763,VALID,355,VALID,0.0210938,
2010-02-18, 02:16:04,VALID,1004.78,VALID,0,VALID,95.5975,VALID,0,VALID,23.1568,VALID,355,VALID,0.332812,
2010-02-18, 02:17:04,VALID,1004.74,VALID,0,VALID,95.5975,VALID,0,VALID,23.1763,VALID,355,VALID,0,
2010-02-18, 02:18:04,VALID,1004.75,VALID,0,VALID,95.6051,VALID,0,VALID,23.1568,VALID,355,VALID,0.176172,
2010-02-18, 02:19:04,VALID,1004.75,VALID,0,VALID,95.6128,VALID,0,VALID,23.1568,VALID,355,VALID,0.0683594,
2010-02-18, 02:20:04,VALID,1004.74,VALID,0,VALID,95.6204,VALID,0,VALID,23.178,VALID,355,VALID,0,
2010-02-18, 02:21:04,VALID,1004.73,VALID,0,VALID,95.628,VALID,0,VALID,23.2187,VALID,355,VALID,0.136328,
2010-02-18, 02:22:04,VALID,1004.73,VALID,0,VALID,95.6128,VALID,0.100563,VALID,23.1568,VALID,355,VALID,0.0445312,
2010-02-18, 02:23:04,VALID,1004.74,VALID,0,VALID,95.6356,VALID,0,VALID,23.1568,VALID,355,VALID,0.0910156,
2010-02-18, 02:24:04,VALID,1004.69,VALID,0,VALID,95.6356,VALID,0.100563,VALID,23.1568,VALID,355,VALID,0.146484,
2010-02-18, 02:25:04,VALID,1004.71,VALID,0,VALID,95.628,VALID,0.100563,VALID,23.1374,VALID,355,VALID,0,
2010-02-18, 02:26:04,VALID,1004.7,VALID,0,VALID,95.628,VALID,0,VALID,23.1374,VALID,355,VALID,0.210938,
2010-02-18, 02:27:04,VALID,1004.69,VALID,0,VALID,95.6128,VALID,0,VALID,23.1586,VALID,355,VALID,0,
2010-02-18, 02:28:04,VALID,1004.71,VALID,0,VALID,95.6356,VALID,0,VALID,23.1374,VALID,355,VALID,0,
2010-02-18, 02:29:04,VALID,1004.7,VALID,0,VALID,95.6356,VALID,0,VALID,23.1179,VALID,355,VALID,0,
2010-02-18, 02:30:04,VALID,1004.71,VALID,0,VALID,95.6128,VALID,0,VALID,23.1179,VALID,355,VALID,0.345313,
2010-02-18, 02:31:04,VALID,1004.73,VALID,0,VALID,95.628,VALID,0,VALID,23.1197,VALID,355,VALID,0.275,
2010-02-18, 02:32:04,VALID,1004.68,VALID,0,VALID,95.6433,VALID,0,VALID,23.1002,VALID,355,VALID,0.280078,
2010-02-18, 02:33:04,VALID,1004.65,VALID,0,VALID,95.6356,VALID,0,VALID,23.0595,VALID,355,VALID,0.385156,
2010-02-18, 02:34:04,VALID,1004.66,VALID,0,VALID,95.628,VALID,0,VALID,23.0206,VALID,355,VALID,0.504297,
2010-02-18, 02:35:04,VALID,1004.64,VALID,0,VALID,95.6356,VALID,0,VALID,23.0613,VALID,355,VALID,0.544922,
2010-02-18, 02:36:04,VALID,1004.62,VALID,0,VALID,95.628,VALID,0,VALID,23.0224,VALID,355,VALID,0.442969,
2010-02-18, 02:37:04,VALID,1004.65,VALID,0,VALID,95.6356,VALID,0,VALID,22.9622,VALID,355,VALID,0.297266,
2010-02-18, 02:38:04,VALID,1004.66,VALID,0,VALID,95.6433,VALID,0,VALID,22.9622,VALID,355,VALID,0.424219,
2010-02-18, 02:39:04,VALID,1004.64,VALID,0,VALID,95.6128,VALID,0,VALID,22.964,VALID,355,VALID,0.137109,
2010-02-18, 02:40:04,VALID,1004.63,VALID,0,VALID,95.628,VALID,0,VALID,22.9428,VALID,355,VALID,0.295703,
2010-02-18, 02:41:04,VALID,1004.61,VALID,0,VALID,95.6204,VALID,0,VALID,22.9834,VALID,355,VALID,0.358594,
2010-02-18, 02:42:04,VALID,1004.6,VALID,0,VALID,95.628,VALID,0,VALID,22.9445,VALID,355,VALID,0.175391,
2010-02-18, 02:43:04,VALID,1004.57,VALID,0,VALID,95.6356,VALID,0,VALID,22.964,VALID,355,VALID,0.329297,
2010-02-18, 02:44:04,VALID,1004.56,VALID,0,VALID,95.6509,VALID,0,VALID,22.9233,VALID,355,VALID,0.191797,
2010-02-18, 02:45:04,VALID,1004.53,VALID,0,VALID,95.6585,VALID,0,VALID,22.9233,VALID,355,VALID,0.184766,
2010-02-18, 02:46:04,VALID,1004.53,VALID,0,VALID,95.6662,VALID,0,VALID,22.9428,VALID,355,VALID,0.413281,
2010-02-18, 02:47:04,VALID,1004.54,VALID,0,VALID,95.6585,VALID,0.100563,VALID,22.9428,VALID,355,VALID,0.143359,
2010-02-18, 02:48:04,VALID,1004.54,VALID,0,VALID,95.6585,VALID,0,VALID,22.964,VALID,355,VALID,0.308594,
2010-02-18, 02:49:04,VALID,1004.52,VALID,0,VALID,95.6738,VALID,0,VALID,22.9428,VALID,355,VALID,0.108203,
2010-02-18, 02:50:04,VALID,1004.51,VALID,0,VALID,95.6967,VALID,0,VALID,22.964,VALID,355,VALID,0,
2010-02-18, 02:51:04,VALID,1004.51,VALID,0,VALID,95.689,VALID,0,VALID,22.9233,VALID,355,VALID,0.0046875,
2010-02-18, 02:52:04,VALID,1004.51,VALID,0,VALID,95.6814,VALID,0,VALID,22.9428,VALID,355,VALID,0.226563,
2010-02-18, 02:53:04,VALID,1004.53,VALID,0,VALID,95.6967,VALID,0,VALID,22.9428,VALID,355,VALID,0.315625,
2010-02-18, 02:54:04,VALID,1004.51,VALID,0,VALID,95.7043,VALID,0,VALID,22.9428,VALID,355,VALID,0.319922,
2010-02-18, 02:55:04,VALID,1004.48,VALID,0,VALID,95.7043,VALID,0,VALID,23.0029,VALID,355,VALID,0.355469,
2010-02-18, 02:56:04,VALID,1004.46,VALID,0,VALID,95.7272,VALID,0,VALID,22.9622,VALID,355,VALID,0.223828,
2010-02-18, 02:57:04,VALID,1004.42,VALID,0,VALID,95.7119,VALID,0,VALID,22.9834,VALID,355,VALID,0.406641,
2010-02-18, 02:58:04,VALID,1004.41,VALID,0,VALID,95.7272,VALID,0.100563,VALID,22.9622,VALID,355,VALID,0.402344,
2010-02-18, 02:59:04,VALID,1004.4,VALID,0,VALID,95.7272,VALID,0,VALID,22.9622,VALID,355,VALID,0.320703,
2010-02-18, 03:00:04,VALID,1004.39,VALID,0,VALID,95.7424,VALID,0,VALID,22.9622,VALID,355,VALID,0.422656,
2010-02-18, 03:01:04,VALID,1004.4,VALID,0,VALID,95.7348,VALID,0.100563,VALID,22.9622,VALID,355,VALID,0.482812,
2010-02-18, 03:02:04,VALID,1004.4,VALID,0,VALID,95.7501,VALID,0,VALID,22.9622,VALID,355,VALID,0.226172,
2010-02-18, 03:03:04,VALID,1004.41,VALID,0,VALID,95.7577,VALID,0,VALID,22.964,VALID,355,VALID,0.257031,
2010-02-18, 03:04:04,VALID,1004.39,VALID,0,VALID,95.7577,VALID,0,VALID,22.964,VALID,355,VALID,0.173047,
2010-02-18, 03:05:04,VALID,1004.38,VALID,0,VALID,95.7653,VALID,0,VALID,22.9428,VALID,355,VALID,0.188672,
2010-02-18, 03:06:04,VALID,1004.4,VALID,0,VALID,95.7653,VALID,0,VALID,22.9233,VALID,355,VALID,0.385938,
2010-02-18, 03:07:04,VALID,1004.38,VALID,0,VALID,95.7577,VALID,0,VALID,22.9233,VALID,355,VALID,0.499219,
2010-02-18, 03:08:04,VALID,1004.37,VALID,0,VALID,95.7577,VALID,0,VALID,22.9233,VALID,355,VALID,0.573047,
2010-02-18, 03:09:04,VALID,1004.37,VALID,0,VALID,95.7577,VALID,0,VALID,22.9233,VALID,355,VALID,0.635938,
2010-02-18, 03:10:04,VALID,1004.37,VALID,0,VALID,95.773,VALID,0,VALID,22.9039,VALID,355,VALID,0.592578,
2010-02-18, 03:11:04,VALID,1004.36,VALID,0,VALID,95.7577,VALID,0,VALID,22.8844,VALID,355,VALID,0.597266,
2010-02-18, 03:12:04,VALID,1004.37,VALID,0,VALID,95.7653,VALID,0,VALID,22.8861,VALID,355,VALID,0.425391,
2010-02-18, 03:13:04,VALID,1004.39,VALID,0,VALID,95.7806,VALID,0,VALID,22.8649,VALID,355,VALID,0.644531,
2010-02-18, 03:14:04,VALID,1004.4,VALID,0,VALID,95.7653,VALID,0,VALID,22.8649,VALID,355,VALID,0.374219,
2010-02-18, 03:15:04,VALID,1004.42,VALID,0,VALID,95.773,VALID,0,VALID,22.8649,VALID,355,VALID,0.456641,
2010-02-18, 03:16:04,VALID,1004.43,VALID,0,VALID,95.7806,VALID,0,VALID,22.8649,VALID,355,VALID,0.237891,
2010-02-18, 03:17:04,VALID,1004.48,VALID,0,VALID,95.7882,VALID,0,VALID,22.8649,VALID,355,VALID,0.285937,
2010-02-18, 03:18:04,VALID,1004.46,VALID,0,VALID,95.7882,VALID,0,VALID,22.8844,VALID,355,VALID,0.00195313,
2010-02-18, 03:19:04,VALID,1004.46,VALID,0,VALID,95.8111,VALID,0,VALID,22.9039,VALID,355,VALID,0,
2010-02-18, 03:20:04,VALID,1004.46,VALID,0,VALID,95.7959,VALID,0,VALID,22.9251,VALID,355,VALID,0,
2010-02-18, 03:21:04,VALID,1004.46,VALID,0,VALID,95.8111,VALID,0.100563,VALID,22.9039,VALID,355,VALID,0,
2010-02-18, 03:22:04,VALID,1004.46,VALID,0,VALID,95.8264,VALID,0,VALID,22.8844,VALID,355,VALID,0,
2010-02-18, 03:23:04,VALID,1004.45,VALID,0,VALID,95.8111,VALID,0,VALID,22.9056,VALID,355,VALID,0,
2010-02-18, 03:24:04,VALID,1004.46,VALID,0,VALID,95.8264,VALID,0,VALID,22.9251,VALID,355,VALID,0,
2010-02-18, 03:25:04,VALID,1004.44,VALID,0,VALID,95.834,VALID,0,VALID,22.9039,VALID,355,VALID,0.0195313,
2010-02-18, 03:26:04,VALID,1004.49,VALID,0,VALID,95.8187,VALID,0.100563,VALID,22.9445,VALID,355,VALID,0.358594,
2010-02-18, 03:27:04,VALID,1004.47,VALID,0,VALID,95.834,VALID,0,VALID,22.9445,VALID,355,VALID,0,
2010-02-18, 03:28:04,VALID,1004.47,VALID,0,VALID,95.8264,VALID,0,VALID,22.9445,VALID,355,VALID,0.0257812,
2010-02-18, 03:29:04,VALID,1004.49,VALID,0,VALID,95.8416,VALID,0,VALID,22.9428,VALID,355,VALID,0.028125,
2010-02-18, 03:30:04,VALID,1004.5,VALID,0,VALID,95.8416,VALID,0,VALID,22.9445,VALID,355,VALID,0.0078125,
2010-02-18, 03:31:04,VALID,1004.51,VALID,0,VALID,95.834,VALID,0,VALID,22.9428,VALID,355,VALID,0.340234,
2010-02-18, 03:32:04,VALID,1004.51,VALID,0,VALID,95.8493,VALID,0,VALID,22.9428,VALID,355,VALID,0.0253906,
2010-02-18, 03:33:04,VALID,1004.52,VALID,0,VALID,95.8493,VALID,0,VALID,22.9622,VALID,355,VALID,0,
2010-02-18, 03:34:04,VALID,1004.55,VALID,0,VALID,95.834,VALID,0,VALID,22.9428,VALID,355,VALID,0,
2010-02-18, 03:35:04,VALID,1004.57,VALID,0,VALID,95.8416,VALID,0,VALID,22.941,VALID,355,VALID,0,
2010-02-18, 03:36:04,VALID,1004.55,VALID,0,VALID,95.8721,VALID,0,VALID,22.9428,VALID,355,VALID,0,
2010-02-18, 03:37:04,VALID,1004.55,VALID,0,VALID,95.8569,VALID,0,VALID,22.9834,VALID,355,VALID,0,
2010-02-18, 03:38:04,VALID,1004.54,VALID,0,VALID,95.8493,VALID,0,VALID,22.9622,VALID,355,VALID,0.00898437,
2010-02-18, 03:39:04,VALID,1004.54,VALID,0,VALID,95.8493,VALID,0,VALID,22.9622,VALID,355,VALID,0.210547,
2010-02-18, 03:40:04,VALID,1004.52,VALID,0,VALID,95.8493,VALID,0,VALID,22.9817,VALID,355,VALID,0.0988281,
2010-02-18, 03:41:04,VALID,1004.52,VALID,0,VALID,95.8645,VALID,0,VALID,23.0224,VALID,355,VALID,0.174219,
2010-02-18, 03:42:04,VALID,1004.47,VALID,0,VALID,95.8721,VALID,0,VALID,23.0418,VALID,355,VALID,0.168359,
2010-02-18, 03:43:04,VALID,1004.49,VALID,0,VALID,95.8721,VALID,0,VALID,23.0383,VALID,355,VALID,0.230078,
2010-02-18, 03:44:04,VALID,1004.5,VALID,0,VALID,95.8645,VALID,0,VALID,23.079,VALID,355,VALID,0.0628906,
2010-02-18, 03:45:04,VALID,1004.5,VALID,0,VALID,95.8569,VALID,0,VALID,23.079,VALID,355,VALID,0.344922,
2010-02-18, 03:46:04,VALID,1004.53,VALID,0,VALID,95.8874,VALID,0,VALID,23.1002,VALID,355,VALID,0,